DAL2121 KMSP-KSAN

Flight info

Callsign DAL2121
Flight time N/A
Altitude 32000
Route LEINY6 LEINY VIVID BFF CYS EKR HVE PROMT Q88 HAKMN Q73 LVELL LUCKI1
Aircraft B739/M-SDE2E3FGHIRWXY/LB1

Departure

Time 2026-05-07 17:11
Airport Minneapolis–Saint Paul International Airport / Wold–Chamberlain Field (KMSP)

Arrival

Time N/A
Airport San Diego International Airport (KSAN)
Time Latitude Longitude Altitude Speed Heading
2026-05-07 16:32 44.87930 -93.20765 816 ft 0 kts 31°
2026-05-07 17:02 44.87928 -93.20767 816 ft 2 kts 31°
2026-05-07 17:02 44.87915 -93.20779 816 ft 2 kts 44°
2026-05-07 17:02 44.87906 -93.20795 816 ft 2 kts 66°
2026-05-07 17:03 44.87902 -93.20816 816 ft 2 kts 87°
2026-05-07 17:03 44.87904 -93.20837 816 ft 2 kts 107°
2026-05-07 17:03 44.87907 -93.20849 816 ft 1 kts 120°
2026-05-07 17:03 44.87910 -93.20856 816 ft 0 kts 121°
2026-05-07 17:06 44.87909 -93.20853 816 ft 1 kts 121°
2026-05-07 17:06 44.87893 -93.20821 815 ft 5 kts 128°
2026-05-07 17:07 44.87845 -93.20770 815 ft 10 kts 137°
2026-05-07 17:07 44.87801 -93.20673 814 ft 12 kts 122°
2026-05-07 17:07 44.87728 -93.20641 812 ft 12 kts 167°
2026-05-07 17:07 44.87667 -93.20547 811 ft 13 kts 123°
2026-05-07 17:08 44.87614 -93.20420 809 ft 16 kts 121°
2026-05-07 17:08 44.87553 -93.20281 808 ft 16 kts 121°
2026-05-07 17:08 44.87498 -93.20152 807 ft 14 kts 121°
2026-05-07 17:08 44.87447 -93.20077 806 ft 0 kts 166°
2026-05-07 17:09 44.87428 -93.20082 806 ft 8 kts 200°
2026-05-07 17:09 44.87384 -93.20142 805 ft 8 kts 253°
2026-05-07 17:09 44.87389 -93.20199 805 ft 0 kts 298°
2026-05-07 17:10 44.87395 -93.20213 806 ft 13 kts 299°
2026-05-07 17:10 44.87564 -93.20606 810 ft 79 kts 301°
2026-05-07 17:10 44.87954 -93.21508 825 ft 137 kts 302°
2026-05-07 17:10 44.88546 -93.22868 950 ft 178 kts 302°
2026-05-07 17:11 44.89132 -93.24328 1857 ft 169 kts 295°
2026-05-07 17:11 44.89584 -93.25734 2791 ft 157 kts 299°
2026-05-07 17:11 44.90151 -93.27148 3094 ft 176 kts 305°
2026-05-07 17:11 44.90846 -93.28647 3427 ft 188 kts 295°
2026-05-07 17:12 44.91047 -93.30549 3700 ft 207 kts 269°
2026-05-07 17:12 44.90960 -93.32638 4034 ft 222 kts 270°
2026-05-07 17:12 44.90951 -93.34881 4392 ft 237 kts 273°
2026-05-07 17:12 44.91005 -93.37248 4809 ft 250 kts 274°
2026-05-07 17:13 44.91072 -93.39735 5305 ft 260 kts 274°
2026-05-07 17:13 44.91136 -93.42261 5991 ft 262 kts 274°
2026-05-07 17:13 44.91196 -93.44823 6676 ft 263 kts 274°
2026-05-07 17:13 44.91253 -93.47382 7399 ft 263 kts 274°
2026-05-07 17:14 44.91311 -93.49966 8081 ft 264 kts 275°
2026-05-07 17:14 44.91367 -93.52525 8776 ft 265 kts 275°
2026-05-07 17:14 44.91425 -93.55118 9435 ft 266 kts 275°
2026-05-07 17:14 44.91481 -93.57719 10112 ft 267 kts 275°
2026-05-07 17:15 44.91540 -93.60375 10475 ft 279 kts 275°
2026-05-07 17:15 44.91604 -93.63169 10766 ft 293 kts 275°
2026-05-07 17:15 44.91705 -93.66081 11255 ft 299 kts 276°
2026-05-07 17:15 44.91847 -93.68999 11905 ft 300 kts 277°
2026-05-07 17:16 44.92001 -93.71934 12500 ft 303 kts 277°
2026-05-07 17:16 44.92149 -93.74864 13103 ft 305 kts 277°
2026-05-07 17:16 44.92293 -93.77845 13696 ft 307 kts 277°
2026-05-07 17:16 44.92433 -93.80842 14269 ft 310 kts 277°
2026-05-07 17:17 44.92574 -93.83868 14859 ft 312 kts 277°
2026-05-07 17:17 44.92714 -93.86923 15406 ft 314 kts 277°
2026-05-07 17:17 44.92855 -93.89999 15956 ft 317 kts 277°
2026-05-07 17:17 44.92997 -93.93105 16490 ft 320 kts 277°
2026-05-07 17:18 44.93139 -93.96248 17016 ft 322 kts 277°
2026-05-07 17:18 44.93282 -93.99410 17508 ft 325 kts 277°
2026-05-07 17:18 44.93424 -94.02589 18034 ft 327 kts 277°
2026-05-07 17:18 44.93566 -94.05763 18534 ft 329 kts 277°
2026-05-07 17:19 44.93708 -94.08984 19019 ft 331 kts 277°
2026-05-07 17:19 44.93851 -94.12225 19526 ft 333 kts 277°
2026-05-07 17:19 44.93994 -94.15482 19962 ft 335 kts 277°
2026-05-07 17:19 44.94137 -94.18794 20450 ft 336 kts 277°
2026-05-07 17:20 44.94278 -94.22069 20901 ft 338 kts 277°
2026-05-07 17:20 44.94418 -94.25351 21335 ft 340 kts 278°
2026-05-07 17:20 44.94562 -94.28710 21727 ft 342 kts 278°
2026-05-07 17:20 44.94702 -94.32031 22172 ft 343 kts 278°
2026-05-07 17:21 44.94844 -94.35390 22559 ft 345 kts 278°
2026-05-07 17:21 44.94985 -94.38747 22945 ft 347 kts 278°
2026-05-07 17:21 44.95128 -94.42181 23289 ft 350 kts 278°
2026-05-07 17:21 44.95267 -94.45579 23690 ft 351 kts 278°
2026-05-07 17:22 44.95407 -94.49012 23989 ft 354 kts 278°
2026-05-07 17:22 44.95546 -94.52466 24400 ft 354 kts 278°
2026-05-07 17:22 44.95685 -94.55925 24748 ft 355 kts 278°
2026-05-07 17:22 44.95824 -94.59403 25120 ft 356 kts 279°
2026-05-07 17:23 44.95961 -94.62872 25474 ft 357 kts 279°
2026-05-07 17:23 44.96098 -94.66367 25747 ft 359 kts 278°
2026-05-07 17:23 44.96235 -94.69883 26057 ft 360 kts 278°
2026-05-07 17:23 44.96371 -94.73444 26405 ft 361 kts 279°
2026-05-07 17:24 44.96506 -94.76958 26640 ft 364 kts 279°
2026-05-07 17:24 44.96641 -94.80512 27015 ft 363 kts 279°
2026-05-07 17:24 44.96773 -94.84052 27361 ft 363 kts 279°
2026-05-07 17:24 44.96905 -94.87592 27674 ft 364 kts 279°
2026-05-07 17:25 44.97037 -94.91176 27913 ft 366 kts 279°
2026-05-07 17:25 44.97167 -94.94754 28214 ft 366 kts 280°
2026-05-07 17:25 44.97297 -94.98325 28583 ft 364 kts 280°
2026-05-07 17:25 44.97427 -95.01907 28794 ft 367 kts 280°
2026-05-07 17:26 44.97556 -95.05503 29018 ft 369 kts 280°
2026-05-07 17:26 44.97683 -95.09116 29306 ft 368 kts 280°
2026-05-07 17:26 44.97809 -95.12710 29551 ft 370 kts 281°
2026-05-07 17:26 44.97936 -95.16335 29746 ft 372 kts 281°
2026-05-07 17:27 44.98060 -95.19929 29983 ft 372 kts 281°
2026-05-07 17:27 44.98182 -95.23575 30274 ft 372 kts 281°
2026-05-07 17:27 44.98307 -95.27241 30447 ft 374 kts 281°
2026-05-07 17:27 44.98430 -95.30897 30705 ft 374 kts 281°
2026-05-07 17:28 44.98552 -95.34560 30879 ft 376 kts 281°
2026-05-07 17:28 44.98676 -95.38266 31071 ft 377 kts 281°
2026-05-07 17:28 44.98796 -95.41926 31220 ft 380 kts 281°
2026-05-07 17:28 44.98916 -95.45694 31455 ft 380 kts 281°
2026-05-07 17:29 44.99035 -95.49434 31573 ft 383 kts 280°
2026-05-07 17:29 44.99153 -95.53161 31765 ft 384 kts 281°
2026-05-07 17:29 44.99271 -95.56963 31906 ft 386 kts 280°
2026-05-07 17:29 44.99388 -95.60754 31922 ft 388 kts 280°
2026-05-07 17:30 44.99625 -95.68439 31934 ft 396 kts 280°
2026-05-07 17:30 44.99862 -95.76282 31932 ft 405 kts 279°
2026-05-07 17:31 45.00092 -95.84307 31928 ft 404 kts 279°
2026-05-07 17:31 45.00309 -95.92184 31930 ft 404 kts 279°
2026-05-07 17:32 45.00528 -96.00136 31932 ft 406 kts 279°
2026-05-07 17:32 45.00704 -96.06750 31938 ft 403 kts 279°
2026-05-07 17:33 45.00950 -96.16030 31940 ft 406 kts 279°
2026-05-07 17:33 45.01153 -96.23954 31936 ft 406 kts 279°
2026-05-07 17:34 45.01349 -96.31874 31930 ft 405 kts 279°
2026-05-07 17:34 45.01541 -96.39814 31927 ft 407 kts 279°
2026-05-07 17:35 45.01727 -96.47768 31918 ft 406 kts 279°
2026-05-07 17:35 45.01907 -96.55698 31915 ft 406 kts 279°
2026-05-07 17:36 45.02081 -96.63652 31914 ft 405 kts 279°
2026-05-07 17:36 45.02252 -96.71598 31911 ft 406 kts 278°
2026-05-07 17:37 45.02416 -96.79529 31908 ft 405 kts 279°
2026-05-07 17:37 45.02572 -96.87458 31905 ft 405 kts 279°
2026-05-07 17:38 45.02728 -96.95408 31904 ft 407 kts 278°
2026-05-07 17:38 45.02874 -97.03344 31911 ft 405 kts 278°
2026-05-07 17:39 45.03016 -97.11286 31908 ft 407 kts 279°
2026-05-07 17:39 45.03158 -97.19289 31913 ft 409 kts 278°
2026-05-07 17:40 45.03289 -97.27312 31909 ft 409 kts 278°
2026-05-07 17:40 45.03416 -97.35338 31906 ft 409 kts 278°
2026-05-07 17:41 45.03535 -97.43333 31907 ft 407 kts 278°
2026-05-07 17:41 45.03649 -97.51313 31904 ft 409 kts 278°
2026-05-07 17:42 45.03155 -97.59423 31902 ft 422 kts 264°
2026-05-07 17:42 45.00839 -97.67200 31905 ft 443 kts 248°
2026-05-07 17:43 44.97516 -97.74521 31905 ft 445 kts 244°
2026-05-07 17:43 44.94013 -97.81753 31902 ft 447 kts 244°
2026-05-07 17:44 44.90515 -97.88947 31906 ft 446 kts 244°
2026-05-07 17:44 44.87036 -97.96130 31910 ft 445 kts 244°
2026-05-07 17:45 44.83566 -98.03310 31900 ft 445 kts 244°
2026-05-07 17:45 44.80083 -98.10510 31895 ft 445 kts 244°
2026-05-07 17:46 44.76590 -98.17727 31890 ft 446 kts 244°
2026-05-07 17:46 44.73116 -98.24883 31887 ft 446 kts 244°
2026-05-07 17:47 44.69623 -98.32065 31890 ft 445 kts 244°
2026-05-07 17:47 44.66154 -98.39175 31889 ft 444 kts 243°
2026-05-07 17:48 44.62662 -98.46315 31890 ft 444 kts 243°
2026-05-07 17:48 44.59188 -98.53402 31891 ft 443 kts 243°
2026-05-07 17:49 44.55683 -98.60538 31894 ft 443 kts 243°
2026-05-07 17:49 44.52176 -98.67657 31892 ft 444 kts 242°
2026-05-07 17:50 44.48684 -98.74731 31894 ft 443 kts 242°
2026-05-07 17:50 44.45181 -98.81808 31894 ft 446 kts 242°
2026-05-07 17:51 44.41673 -98.88876 31892 ft 444 kts 242°
2026-05-07 17:51 44.38151 -98.95959 31886 ft 445 kts 242°
2026-05-07 17:52 44.34610 -99.03061 31892 ft 444 kts 242°
2026-05-07 17:52 44.31083 -99.10113 31894 ft 444 kts 242°
2026-05-07 17:53 44.27551 -99.17162 31897 ft 445 kts 242°
2026-05-07 17:53 44.24019 -99.24194 31896 ft 444 kts 242°
2026-05-07 17:54 44.20485 -99.31214 31896 ft 445 kts 242°
2026-05-07 17:54 44.16936 -99.38243 31891 ft 444 kts 242°
2026-05-07 17:55 44.13393 -99.45243 31891 ft 444 kts 241°
2026-05-07 17:55 44.09833 -99.52261 31894 ft 443 kts 241°
2026-05-07 17:56 44.06290 -99.59229 31888 ft 443 kts 241°
2026-05-07 17:56 44.02737 -99.66198 31885 ft 443 kts 240°
2026-05-07 17:57 43.99755 -99.72038 31883 ft 445 kts 240°
2026-05-07 17:57 43.95604 -99.80148 31886 ft 446 kts 240°
2026-05-07 17:58 43.91998 -99.87176 31885 ft 445 kts 240°
2026-05-07 17:58 43.88421 -99.94127 31885 ft 445 kts 240°
2026-05-07 17:59 43.84828 -100.01077 31889 ft 445 kts 239°
2026-05-07 17:59 43.81169 -100.07996 31899 ft 446 kts 239°
2026-05-07 18:00 43.77496 -100.14864 31908 ft 446 kts 239°
2026-05-07 18:00 43.73806 -100.21752 31908 ft 444 kts 239°
2026-05-07 18:01 43.70129 -100.28612 31910 ft 443 kts 239°
2026-05-07 18:01 43.66465 -100.35444 31913 ft 444 kts 239°
2026-05-07 18:02 43.60955 -100.45693 31916 ft 443 kts 239°
2026-05-07 18:03 43.57268 -100.52530 31918 ft 442 kts 239°
2026-05-07 18:03 43.53612 -100.59296 31921 ft 442 kts 239°
2026-05-07 18:04 43.49915 -100.66121 31919 ft 442 kts 238°
2026-05-07 18:04 43.46229 -100.72907 31929 ft 442 kts 238°
2026-05-07 18:05 43.42540 -100.79685 31926 ft 442 kts 238°
2026-05-07 18:05 43.38840 -100.86465 31932 ft 442 kts 238°
2026-05-07 18:06 43.35166 -100.93189 31930 ft 441 kts 238°
2026-05-07 18:06 43.31463 -100.99956 31936 ft 441 kts 238°
2026-05-07 18:07 43.27778 -101.06675 31929 ft 441 kts 238°
2026-05-07 18:07 43.24101 -101.13364 31927 ft 441 kts 238°
2026-05-07 18:08 43.20388 -101.20112 31922 ft 442 kts 238°
2026-05-07 18:08 43.16704 -101.26756 31921 ft 441 kts 239°
2026-05-07 18:09 43.12991 -101.33455 31923 ft 442 kts 239°
2026-05-07 18:09 43.09279 -101.40140 31923 ft 442 kts 239°
2026-05-07 18:10 43.05543 -101.46856 31926 ft 443 kts 239°
2026-05-07 18:10 43.01815 -101.53538 31927 ft 441 kts 239°
2026-05-07 18:11 42.98098 -101.60186 31931 ft 443 kts 239°
2026-05-07 18:11 42.94355 -101.66866 31932 ft 443 kts 238°
2026-05-07 18:12 42.90594 -101.73562 31934 ft 445 kts 238°
2026-05-07 18:12 42.86848 -101.80212 31932 ft 444 kts 238°
2026-05-07 18:13 42.83059 -101.86925 31924 ft 447 kts 238°
2026-05-07 18:13 42.79323 -101.93613 31930 ft 442 kts 241°
2026-05-07 18:14 42.76215 -102.00701 31937 ft 437 kts 248°
2026-05-07 18:14 42.73398 -102.08003 31944 ft 436 kts 248°
2026-05-07 18:15 42.70571 -102.15237 31950 ft 436 kts 248°
2026-05-07 18:15 42.67663 -102.22457 31943 ft 437 kts 247°
2026-05-07 18:16 42.64693 -102.29688 31940 ft 437 kts 246°
2026-05-07 18:16 42.61732 -102.36822 31938 ft 437 kts 246°
2026-05-07 18:17 42.58746 -102.43975 31941 ft 436 kts 246°
2026-05-07 18:17 42.55755 -102.51115 31942 ft 436 kts 246°
2026-05-07 18:18 42.52750 -102.58268 31945 ft 436 kts 246°
2026-05-07 18:18 42.49758 -102.65376 31946 ft 436 kts 245°
2026-05-07 18:19 42.46741 -102.72526 31948 ft 437 kts 245°
2026-05-07 18:19 42.43742 -102.79606 31953 ft 435 kts 245°
2026-05-07 18:20 42.40728 -102.86702 31959 ft 436 kts 245°
2026-05-07 18:20 42.37701 -102.93819 31961 ft 436 kts 245°
2026-05-07 18:21 42.34669 -103.00936 31969 ft 438 kts 244°
2026-05-07 18:21 42.31627 -103.08064 31970 ft 438 kts 245°
2026-05-07 18:22 42.28604 -103.15145 31973 ft 437 kts 244°
2026-05-07 18:22 42.25548 -103.22257 31970 ft 438 kts 244°
2026-05-07 18:23 42.22505 -103.29334 31958 ft 439 kts 244°
2026-05-07 18:23 42.19424 -103.36458 31966 ft 438 kts 244°
2026-05-07 18:24 42.16362 -103.43532 31963 ft 438 kts 244°
2026-05-07 18:24 42.13306 -103.50596 31967 ft 440 kts 244°
2026-05-07 18:25 42.10235 -103.57672 31968 ft 439 kts 244°
2026-05-07 18:25 42.07166 -103.64749 31964 ft 440 kts 244°
2026-05-07 18:26 42.04060 -103.71875 31977 ft 442 kts 244°
2026-05-07 18:26 42.00958 -103.78956 31964 ft 441 kts 244°
2026-05-07 18:27 41.97848 -103.86013 31971 ft 441 kts 243°
2026-05-07 18:27 41.94722 -103.93108 31953 ft 441 kts 244°
2026-05-07 18:28 41.91610 -104.00168 31964 ft 442 kts 244°
2026-05-07 18:28 41.88472 -104.07266 31985 ft 441 kts 244°
2026-05-07 18:29 41.85347 -104.14311 31992 ft 440 kts 244°
2026-05-07 18:29 41.82222 -104.21342 31988 ft 439 kts 244°
2026-05-07 18:30 41.79099 -104.28347 32011 ft 439 kts 244°
2026-05-07 18:30 41.75967 -104.35357 32012 ft 440 kts 245°
2026-05-07 18:31 41.72818 -104.42399 32013 ft 440 kts 245°
2026-05-07 18:31 41.69695 -104.49373 32018 ft 439 kts 245°
2026-05-07 18:32 41.66539 -104.56396 32019 ft 438 kts 245°
2026-05-07 18:32 41.63396 -104.63385 32023 ft 439 kts 245°
2026-05-07 18:33 41.60252 -104.70355 32049 ft 440 kts 244°
2026-05-07 18:33 41.57086 -104.77366 32054 ft 441 kts 245°
2026-05-07 18:34 41.53932 -104.84319 32050 ft 440 kts 245°
2026-05-07 18:34 41.50762 -104.91288 32049 ft 440 kts 245°
2026-05-07 18:35 41.47579 -104.98260 32070 ft 441 kts 245°
2026-05-07 18:35 41.44411 -105.05193 32080 ft 439 kts 246°
2026-05-07 18:36 41.41225 -105.12157 32095 ft 440 kts 246°
2026-05-07 18:36 41.38070 -105.19047 32091 ft 438 kts 246°
2026-05-07 18:37 41.34893 -105.25960 32095 ft 441 kts 246°
2026-05-07 18:37 41.31681 -105.32936 32096 ft 439 kts 246°
2026-05-07 18:38 41.28521 -105.39798 32118 ft 439 kts 246°
2026-05-07 18:38 41.25320 -105.46722 32121 ft 442 kts 246°
2026-05-07 18:39 41.22100 -105.53617 32111 ft 439 kts 246°
2026-05-07 18:39 41.18889 -105.60546 32129 ft 444 kts 247°
2026-05-07 18:40 41.15670 -105.67472 32139 ft 441 kts 246°
2026-05-07 18:40 41.12427 -105.74419 32140 ft 445 kts 246°
2026-05-07 18:41 41.09177 -105.81356 32157 ft 442 kts 246°
2026-05-07 18:41 41.05935 -105.88276 32165 ft 443 kts 246°
2026-05-07 18:42 41.02696 -105.95158 32174 ft 440 kts 246°
2026-05-07 18:42 40.99442 -106.02059 32190 ft 443 kts 246°
2026-05-07 18:43 40.96189 -106.08940 32204 ft 443 kts 246°
2026-05-07 18:43 40.92926 -106.15833 32204 ft 444 kts 246°
2026-05-07 18:44 40.89657 -106.22733 32214 ft 445 kts 246°
2026-05-07 18:44 40.86391 -106.29627 32224 ft 443 kts 246°
2026-05-07 18:45 40.83104 -106.36514 32214 ft 447 kts 246°
2026-05-07 18:45 40.79796 -106.43414 32224 ft 444 kts 246°
2026-05-07 18:46 40.76482 -106.50324 32237 ft 445 kts 246°
2026-05-07 18:46 40.73151 -106.57258 32244 ft 448 kts 246°
2026-05-07 18:47 40.69839 -106.64139 32242 ft 449 kts 245°
2026-05-07 18:47 40.66488 -106.71092 32242 ft 449 kts 245°
2026-05-07 18:48 40.63160 -106.77984 32238 ft 449 kts 245°
2026-05-07 18:48 40.59795 -106.84949 32209 ft 449 kts 245°
2026-05-07 18:49 40.56428 -106.91900 32204 ft 451 kts 245°